Time,TemperatureF,DewpointF,PressureIn,WindDirection,WindDirectionDegrees,WindSpeedMPH,WindSpeedGustMPH,Humidity,HourlyPrecipIn,Conditions,Clouds,dailyrainin,SolarRadiationWatts/m^2,SoftwareType,DateUTC
2013-01-25 00:01:00,45.0,45.0,-100.00,ENE,63,2.0,6.0,100,0.01,,,0.23,0.000000,,2013-01-25 08:01:00,
2013-01-25 00:11:00,45.0,45.0,-100.00,ENE,63,2.0,6.0,100,0.01,,,0.23,0.000000,,2013-01-25 08:11:00,
2013-01-25 00:32:00,46.0,46.0,-100.00,South,191,4.0,9.0,100,0.02,,,0.24,0.000000,,2013-01-25 08:32:00,
2013-01-25 00:42:00,46.0,46.0,-100.00,South,191,4.0,9.0,100,0.02,,,0.24,0.000000,,2013-01-25 08:42:00,
2013-01-25 00:52:00,46.0,46.0,-100.00,South,191,4.0,9.0,100,0.02,,,0.24,0.000000,,2013-01-25 08:52:00,
2013-01-25 01:01:00,46.0,46.0,-100.00,South,191,4.0,9.0,100,0.02,,,0.24,0.000000,,2013-01-25 09:01:00,
2013-01-25 01:11:00,46.0,46.0,-100.00,South,191,4.0,9.0,100,0.02,,,0.24,0.000000,,2013-01-25 09:11:00,
2013-01-25 01:32:00,46.0,46.0,-100.00,NNE,16,2.0,5.0,100,0.02,,,0.26,0.000000,,2013-01-25 09:32:00,
2013-01-25 01:42:00,46.0,46.0,-100.00,NNE,16,2.0,5.0,100,0.02,,,0.26,0.000000,,2013-01-25 09:42:00,
2013-01-25 01:52:00,46.0,46.0,-100.00,NNE,16,2.0,5.0,100,0.02,,,0.26,0.000000,,2013-01-25 09:52:00,
2013-01-25 02:01:00,46.0,46.0,-100.00,NNE,16,2.0,5.0,100,0.02,,,0.26,0.000000,,2013-01-25 10:01:00,
2013-01-25 02:11:00,46.0,46.0,-100.00,NNE,16,2.0,5.0,100,0.02,,,0.26,0.000000,,2013-01-25 10:11:00,
2013-01-25 02:42:00,47.0,47.0,-100.00,NNE,22,1.0,4.0,100,0.00,,,0.26,0.000000,,2013-01-25 10:42:00,
2013-01-25 02:52:00,47.0,47.0,-100.00,NNE,22,1.0,4.0,100,0.00,,,0.26,0.000000,,2013-01-25 10:52:00,
2013-01-25 03:02:00,47.0,47.0,-100.00,NNE,22,1.0,4.0,100,0.00,,,0.26,0.000000,,2013-01-25 11:02:00,
2013-01-25 03:11:00,47.0,47.0,-100.00,NNE,22,1.0,4.0,100,0.00,,,0.26,0.000000,,2013-01-25 11:11:00,
2013-01-25 03:33:00,47.0,47.0,-100.00,NNE,13,1.0,3.0,100,0.01,,,0.27,0.000000,,2013-01-25 11:33:00,
2013-01-25 03:42:00,47.0,47.0,-100.00,NNE,13,1.0,3.0,100,0.01,,,0.27,0.000000,,2013-01-25 11:42:00,
2013-01-25 03:52:00,47.0,47.0,-100.00,NNE,13,1.0,3.0,100,0.01,,,0.27,0.000000,,2013-01-25 11:52:00,
2013-01-25 04:02:00,47.0,47.0,-100.00,NNE,13,1.0,3.0,100,0.01,,,0.27,0.000000,,2013-01-25 12:02:00,
2013-01-25 04:11:00,47.0,47.0,-100.00,NNE,13,1.0,3.0,100,0.01,,,0.27,0.000000,,2013-01-25 12:11:00,
2013-01-25 04:33:00,47.0,47.0,-100.00,North,351,2.0,5.0,100,0.01,,,0.28,0.000000,,2013-01-25 12:33:00,
2013-01-25 04:42:00,47.0,47.0,-100.00,North,351,2.0,5.0,100,0.01,,,0.28,0.000000,,2013-01-25 12:42:00,
2013-01-25 04:53:00,47.0,47.0,-100.00,North,351,2.0,5.0,100,0.01,,,0.28,0.000000,,2013-01-25 12:53:00,
2013-01-25 05:02:00,47.0,47.0,-100.00,North,351,2.0,5.0,100,0.01,,,0.28,0.000000,,2013-01-25 13:02:00,
2013-01-25 05:11:00,47.0,47.0,-100.00,North,351,2.0,5.0,100,0.01,,,0.28,0.000000,,2013-01-25 13:11:00,
2013-01-25 05:33:00,47.0,47.0,-100.00,North,11,1.0,5.0,100,0.00,,,-99.99,0.000000,,2013-01-25 13:33:00,
2013-01-25 05:43:00,47.0,47.0,-100.00,North,11,1.0,5.0,100,0.00,,,-99.99,0.000000,,2013-01-25 13:43:00,
2013-01-25 05:52:00,47.0,47.0,-100.00,North,11,1.0,5.0,100,0.00,,,-99.99,0.000000,,2013-01-25 13:52:00,
2013-01-25 06:02:00,47.0,47.0,-100.00,North,11,1.0,5.0,100,0.00,,,-99.99,0.000000,,2013-01-25 14:02:00,
2013-01-25 06:11:00,47.0,47.0,-100.00,North,11,1.0,5.0,100,0.00,,,-99.99,0.000000,,2013-01-25 14:11:00,
2013-01-25 06:33:00,47.0,47.0,-100.00,North,2,1.0,4.0,100,0.00,,,0.28,0.000000,,2013-01-25 14:33:00,
2013-01-25 06:42:00,47.0,47.0,-100.00,North,2,1.0,4.0,100,0.00,,,0.28,0.000000,,2013-01-25 14:42:00,
2013-01-25 06:53:00,47.0,47.0,-100.00,North,2,1.0,4.0,100,0.00,,,0.28,0.000000,,2013-01-25 14:53:00,
2013-01-25 07:02:00,47.0,47.0,-100.00,North,2,1.0,4.0,100,0.00,,,0.28,0.000000,,2013-01-25 15:02:00,
2013-01-25 07:11:00,47.0,47.0,-100.00,North,2,1.0,4.0,100,0.00,,,0.28,0.000000,,2013-01-25 15:11:00,
2013-01-25 07:33:00,47.0,47.0,-100.00,NE,42,0.0,2.0,100,0.01,,,0.29,0.000000,,2013-01-25 15:33:00,
2013-01-25 07:43:00,47.0,47.0,-100.00,NE,42,0.0,2.0,100,0.01,,,0.29,0.000000,,2013-01-25 15:43:00,
2013-01-25 07:53:00,47.0,47.0,-100.00,NE,42,0.0,2.0,100,0.01,,,0.29,0.000000,,2013-01-25 15:53:00,
2013-01-25 08:02:00,47.0,47.0,-100.00,NE,42,0.0,2.0,100,0.01,,,0.29,0.000000,,2013-01-25 16:02:00,
2013-01-25 08:11:00,47.0,47.0,-100.00,NE,42,0.0,2.0,100,0.01,,,0.29,0.000000,,2013-01-25 16:11:00,
2013-01-25 08:43:00,47.0,47.0,-100.00,NE,45,1.0,2.0,100,0.00,,,0.29,1.000000,,2013-01-25 16:43:00,
2013-01-25 08:53:00,47.0,47.0,-100.00,NE,45,1.0,2.0,100,0.00,,,0.29,1.000000,,2013-01-25 16:53:00,
2013-01-25 09:02:00,47.0,47.0,-100.00,NE,45,1.0,2.0,100,0.00,,,0.29,1.000000,,2013-01-25 17:02:00,
2013-01-25 09:11:00,47.0,47.0,-100.00,NE,45,1.0,2.0,100,0.00,,,0.29,1.000000,,2013-01-25 17:11:00,
2013-01-25 09:43:00,48.0,48.0,-100.00,NE,52,0.0,4.0,100,0.01,,,0.30,23.000000,,2013-01-25 17:43:00,
2013-01-25 09:53:00,48.0,48.0,-100.00,NE,52,0.0,4.0,100,0.01,,,0.30,23.000000,,2013-01-25 17:53:00,
2013-01-25 10:02:00,48.0,48.0,-100.00,NE,52,0.0,4.0,100,0.01,,,0.30,23.000000,,2013-01-25 18:02:00,
2013-01-25 10:11:00,48.0,48.0,-100.00,NE,52,0.0,4.0,100,0.01,,,0.30,23.000000,,2013-01-25 18:11:00,
2013-01-25 10:12:00,49.0,49.0,-100.00,East,96,1.0,3.0,100,0.00,,,0.30,69.000000,,2013-01-25 18:12:00,
2013-01-25 10:43:00,49.0,49.0,-100.00,East,96,1.0,3.0,100,0.00,,,0.30,69.000000,,2013-01-25 18:43:00,
2013-01-25 10:52:00,49.0,49.0,-100.00,East,96,1.0,3.0,100,0.00,,,0.30,69.000000,,2013-01-25 18:52:00,
2013-01-25 11:02:00,49.0,49.0,-100.00,East,96,1.0,3.0,100,0.00,,,0.30,69.000000,,2013-01-25 19:02:00,
2013-01-25 11:42:00,50.0,50.0,-100.00,WSW,239,5.0,9.0,100,0.00,,,0.30,128.000000,,2013-01-25 19:42:00,
2013-01-25 11:53:00,50.0,50.0,-100.00,WSW,239,5.0,9.0,100,0.00,,,0.30,128.000000,,2013-01-25 19:53:00,
2013-01-25 12:02:00,50.0,50.0,-100.00,WSW,239,5.0,9.0,100,0.00,,,0.30,128.000000,,2013-01-25 20:02:00,
2013-01-25 12:11:00,50.0,50.0,-100.00,WSW,239,5.0,9.0,100,0.00,,,0.30,128.000000,,2013-01-25 20:11:00,
2013-01-25 12:43:00,48.0,48.0,-100.00,West,265,6.0,10.0,100,0.01,,,0.31,106.000000,,2013-01-25 20:43:00,
2013-01-25 12:52:00,48.0,48.0,-100.00,West,265,6.0,10.0,100,0.01,,,0.31,106.000000,,2013-01-25 20:52:00,
2013-01-25 13:02:00,48.0,48.0,-100.00,West,265,6.0,10.0,100,0.01,,,0.31,106.000000,,2013-01-25 21:02:00,
2013-01-25 13:11:00,48.0,48.0,-100.00,West,265,6.0,10.0,100,0.01,,,0.31,106.000000,,2013-01-25 21:11:00,
2013-01-25 13:43:00,50.0,50.0,-100.00,WSW,256,5.0,10.0,100,0.00,,,0.31,262.000000,,2013-01-25 21:43:00,
2013-01-25 13:52:00,50.0,50.0,-100.00,WSW,256,5.0,10.0,100,0.00,,,0.31,262.000000,,2013-01-25 21:52:00,
2013-01-25 14:02:00,50.0,50.0,-100.00,WSW,256,5.0,10.0,100,0.00,,,0.31,262.000000,,2013-01-25 22:02:00,
2013-01-25 14:11:00,50.0,50.0,-100.00,WSW,256,5.0,10.0,100,0.00,,,0.31,262.000000,,2013-01-25 22:11:00,
2013-01-25 14:42:00,50.0,50.0,-100.00,West,259,5.0,10.0,100,0.00,,,0.31,208.000000,,2013-01-25 22:42:00,
2013-01-25 14:52:00,50.0,50.0,-100.00,West,259,5.0,10.0,100,0.00,,,0.31,208.000000,,2013-01-25 22:52:00,
2013-01-25 15:02:00,50.0,50.0,-100.00,West,259,5.0,10.0,100,0.00,,,0.31,208.000000,,2013-01-25 23:02:00,
2013-01-25 15:11:00,50.0,50.0,-100.00,West,259,5.0,10.0,100,0.00,,,0.31,208.000000,,2013-01-25 23:11:00,
2013-01-25 15:42:00,49.0,49.0,-100.00,West,263,5.0,10.0,100,0.00,,,0.31,330.000000,,2013-01-25 23:42:00,
2013-01-25 15:52:00,49.0,49.0,-100.00,West,263,5.0,10.0,100,0.00,,,0.31,330.000000,,2013-01-25 23:52:00,
2013-01-25 16:01:00,49.0,49.0,-100.00,West,263,5.0,10.0,100,0.00,,,0.31,330.000000,,2013-01-26 00:01:00,
2013-01-25 16:11:00,49.0,49.0,-100.00,West,263,5.0,10.0,100,0.00,,,0.31,330.000000,,2013-01-26 00:11:00,
2013-01-25 16:42:00,48.0,48.0,-100.00,WSW,242,6.0,8.0,100,0.00,,,0.29,136.000000,,2013-01-26 00:42:00,
2013-01-25 16:53:00,48.0,48.0,-100.00,WSW,242,6.0,8.0,100,0.00,,,0.29,136.000000,,2013-01-26 00:53:00,
2013-01-25 17:01:00,48.0,48.0,-100.00,WSW,242,6.0,8.0,100,0.00,,,0.29,136.000000,,2013-01-26 01:01:00,
2013-01-25 17:11:00,48.0,48.0,-100.00,WSW,242,6.0,8.0,100,0.00,,,0.29,136.000000,,2013-01-26 01:11:00,
2013-01-25 17:32:00,46.0,46.0,-100.00,SSW,192,3.0,8.0,100,0.00,,,0.26,38.000000,,2013-01-26 01:32:00,
2013-01-25 17:42:00,46.0,46.0,-100.00,SSW,192,3.0,8.0,100,0.00,,,0.26,38.000000,,2013-01-26 01:42:00,
2013-01-25 17:52:00,46.0,46.0,-100.00,SSW,192,3.0,8.0,100,0.00,,,0.26,38.000000,,2013-01-26 01:52:00,
2013-01-25 18:01:00,46.0,46.0,-100.00,SSW,192,3.0,8.0,100,0.00,,,0.26,38.000000,,2013-01-26 02:01:00,
2013-01-25 18:11:00,46.0,46.0,-100.00,SSW,192,3.0,8.0,100,0.00,,,0.26,38.000000,,2013-01-26 02:11:00,
2013-01-25 18:42:00,44.0,44.0,-100.00,NNE,15,1.0,2.0,100,0.00,,,0.21,1.000000,,2013-01-26 02:42:00,
2013-01-25 18:52:00,44.0,44.0,-100.00,NNE,15,1.0,2.0,100,0.00,,,0.21,1.000000,,2013-01-26 02:52:00,
2013-01-25 19:01:00,44.0,44.0,-100.00,NNE,15,1.0,2.0,100,0.00,,,0.21,1.000000,,2013-01-26 03:01:00,
2013-01-25 19:11:00,44.0,44.0,-100.00,NNE,15,1.0,2.0,100,0.00,,,0.21,1.000000,,2013-01-26 03:11:00,
2013-01-25 19:12:00,41.0,41.0,-100.00,ESE,120,2.0,4.0,100,0.00,,,0.19,0.000000,,2013-01-26 03:12:00,
2013-01-25 19:32:00,41.0,41.0,-100.00,ESE,120,2.0,4.0,100,0.00,,,0.19,0.000000,,2013-01-26 03:32:00,
2013-01-25 19:43:00,41.0,41.0,-100.00,ESE,120,2.0,4.0,100,0.00,,,0.19,0.000000,,2013-01-26 03:43:00,
2013-01-25 19:52:00,41.0,41.0,-100.00,ESE,120,2.0,4.0,100,0.00,,,0.19,0.000000,,2013-01-26 03:52:00,
2013-01-25 20:01:00,41.0,41.0,-100.00,ESE,120,2.0,4.0,100,0.00,,,0.19,0.000000,,2013-01-26 04:01:00,
2013-01-25 20:12:00,41.0,41.0,-100.00,ESE,118,2.0,4.0,100,0.00,,,0.15,0.000000,,2013-01-26 04:12:00,
2013-01-25 20:32:00,41.0,41.0,-100.00,ESE,118,2.0,4.0,100,0.00,,,0.15,0.000000,,2013-01-26 04:32:00,
2013-01-25 20:42:00,41.0,41.0,-100.00,ESE,118,2.0,4.0,100,0.00,,,0.15,0.000000,,2013-01-26 04:42:00,
2013-01-25 20:52:00,41.0,41.0,-100.00,ESE,118,2.0,4.0,100,0.00,,,0.15,0.000000,,2013-01-26 04:52:00,
2013-01-25 21:03:00,41.0,41.0,-100.00,ESE,118,2.0,4.0,100,0.00,,,0.15,0.000000,,2013-01-26 05:03:00,
2013-01-25 21:33:00,40.0,40.0,-100.00,SSE,147,2.0,4.0,100,0.00,,,0.11,0.000000,,2013-01-26 05:33:00,
2013-01-25 21:42:00,40.0,40.0,-100.00,SSE,147,2.0,4.0,100,0.00,,,0.11,0.000000,,2013-01-26 05:42:00,
2013-01-25 21:52:00,40.0,40.0,-100.00,SSE,147,2.0,4.0,100,0.00,,,0.11,0.000000,,2013-01-26 05:52:00,
2013-01-25 22:02:00,40.0,40.0,-100.00,SSE,147,2.0,4.0,100,0.00,,,0.11,0.000000,,2013-01-26 06:02:00,
2013-01-25 22:11:00,40.0,40.0,-100.00,SSE,147,2.0,4.0,100,0.00,,,0.11,0.000000,,2013-01-26 06:11:00,
2013-01-25 22:32:00,42.0,42.0,-100.00,East,89,2.0,6.0,100,0.00,,,0.10,0.000000,,2013-01-26 06:32:00,
2013-01-25 22:42:00,42.0,42.0,-100.00,East,89,2.0,6.0,100,0.00,,,0.10,0.000000,,2013-01-26 06:42:00,
2013-01-25 22:52:00,42.0,42.0,-100.00,East,89,2.0,6.0,100,0.00,,,0.10,0.000000,,2013-01-26 06:52:00,
2013-01-25 23:01:00,42.0,42.0,-100.00,East,89,2.0,6.0,100,0.00,,,0.10,0.000000,,2013-01-26 07:01:00,
2013-01-25 23:11:00,42.0,42.0,-100.00,East,89,2.0,6.0,100,0.00,,,0.10,0.000000,,2013-01-26 07:11:00,
2013-01-25 23:33:00,42.0,42.0,-100.00,ENE,68,2.0,5.0,100,0.00,,,0.09,0.000000,,2013-01-26 07:33:00,
2013-01-25 23:42:00,42.0,42.0,-100.00,ENE,68,2.0,5.0,100,0.00,,,0.09,0.000000,,2013-01-26 07:42:00,
2013-01-25 23:52:00,42.0,42.0,-100.00,ENE,68,2.0,5.0,100,0.00,,,0.09,0.000000,,2013-01-26 07:52:00,